Location: Ariel
(45.9570°N, 122.5700°W)
Time: 05:03:48
(UTC-07:00)

A-11 Canister half - Pass Details

Date: 26 August 2019
Orbit: 1514 x 1686 km, 47.2° (Epoch: 15 September)

Event Time Altitude Azimuth Distance (km) Brightness Sun altitude
Rises 23:57:02 0° 291° (WNW) 4,776 12.1 -31.1°
Reaches altitude 10° 00:00:09 10° 288° (WNW) 3,813 11.5 -31.3°
Maximum altitude 00:09:34 57° 213° (SSW) 1,881 9.1 -31.8°
Enters shadow 00:09:57 57° 205° (SSW) 1,887 9.1 -31.9°
